GW5170 Weather Reports


time (UTC)temp
C
wind
direction
speed
KPH
gust
KPH
rain 1hr
cm
rain 24hr
cm
rain mn
cm
humidity
%
barometer
mb
20260831064121 23 329 3.2 3.2 0.00 0.00 0.00 85 1013.4
20260831063617 23 305 1.6 1.6 0.00 0.00 0.00 86 1013.5
20260831063112 23 16 3.2 3.2 0.00 0.00 0.00 86 1013.5
20260831062607 23 306 3.2 3.2 0.00 0.00 0.00 87 1013.5
20260831062106 22 250 3.2 3.2 0.00 0.00 0.00 88 1013.6
20260831061604 22 339 3.2 3.2 0.00 0.00 0.00 88 1013.5
20260831061100 22 161 3.2 4.8 0.00 0.00 0.00 88 1013.5
20260831060556 22 11 3.2 3.2 0.00 0.00 0.00 89 1013.5
20260831060050 22 318 1.6 3.2 0.00 0.00 0.00 89 1013.5
20260831055545 22 326 3.2 4.8 0.00 0.00 0.00 88 1013.5
20260831055041 23 345 3.2 3.2 0.00 0.00 0.00 88 1013.6
20260831054540 23 173 4.8 6.4 0.00 0.00 0.00 88 1013.5
20260831054039 23 147 3.2 4.8 0.00 0.00 0.00 88 1013.5
20260831053538 23 301 1.6 3.2 0.00 0.00 0.00 88 1013.7
20260831053033 23 206 6.4 11.3 0.00 0.00 0.00 88 1013.6
20260831052532 23 198 9.7 11.3 0.00 0.00 0.00 88 1013.4
20260831052026 23 328 1.6 3.2 0.00 0.00 0.00 88 1013.4
20260831051524 23 282 6.4 6.4 0.00 0.00 0.00 88 1013.5
20260831051024 23 330 1.6 1.6 0.00 0.00 0.00 88 1013.6
20260831050523 23 214 3.2 6.4 0.00 0.00 0.00 89 1013.5
20260831050022 23 197 4.8 4.8 0.00 0.76 0.76 88 1013.6
20260831045521 23 347 0.0 1.6 0.00 0.76 0.76 88 1013.9
20260831045017 23 325 0.0 1.6 0.00 0.76 0.76 87 1013.9
20260831044512 23 299 3.2 4.8 0.00 0.76 0.76 88 1013.9
20260831044007 23 324 1.6 1.6 0.00 0.76 0.76 88 1013.5
20260831043507 23 101 6.4 9.7 0.00 0.76 0.76 88 1013.7
20260831043002 23 171 4.8 6.4 0.00 0.76 0.76 88 1013.6
20260831042502 23 228 3.2 3.2 0.00 0.76 0.76 89 1013.6
20260831041957 23 92 8.0 11.3 0.00 0.76 0.76 89 1013.7
20260831041452 23 10 3.2 4.8 0.00 0.76 0.76 89 1013.7
20260831040951 23 186 6.4 6.4 0.00 0.76 0.76 89 1013.6
20260831040446 23 24 1.6 3.2 0.00 0.76 0.76 89 1013.9
20260831035943 23 260 6.4 11.3 0.00 0.76 0.76 88 1014.0
20260831035443 23 289 3.2 3.2 0.00 0.76 0.76 89 1014.1
20260831034938 23 350 1.6 3.2 0.00 0.76 0.76 89 1014.2
20260831034433 23 207 4.8 4.8 0.00 0.76 0.76 89 1014.1
20260831033928 23 213 6.4 9.7 0.00 0.76 0.76 90 1013.7
20260831033424 23 234 4.8 6.4 0.00 0.76 0.76 89 1013.9
20260831032920 23 210 8.0 9.7 0.00 0.76 0.76 89 1014.1
20260831032419 23 171 4.8 9.7 0.00 0.76 0.76 89 1014.2
20260831031915 23 343 4.8 6.4 0.00 0.76 0.76 88 1014.3
20260831031414 23 36 3.2 3.2 0.00 0.76 0.76 87 1014.5
20260831030908 23 95 4.8 6.4 0.00 0.76 0.76 87 1014.5
20260831030408 24 189 6.4 6.4 0.00 0.76 0.76 86 1014.3
20260831025906 24 236 4.8 4.8 0.00 0.76 0.76 86 1014.4
20260831025406 24 186 4.8 4.8 0.00 0.76 0.76 85 1014.4
20260831024902 23 159 4.8 4.8 0.00 0.76 0.76 86 1014.5
20260831024401 23 146 6.4 9.7 0.00 0.76 0.76 86 1014.4
20260831023901 23 359 1.6 3.2 0.00 0.76 0.76 87 1014.5
20260831023359 23 250 4.8 4.8 0.00 0.76 0.76 88 1014.5
20260831022855 23 3 0.0 0.0 0.00 0.76 0.76 89 1014.6
20260831022353 23 346 1.6 1.6 0.00 0.76 0.76 88 1014.6
20260831021848 23 353 0.0 1.6 0.00 0.76 0.76 88 1014.7
20260831021348 23 2 1.6 1.6 0.00 0.76 0.76 88 1014.3
20260831020844 23 344 0.0 1.6 0.00 0.76 0.76 88 1014.3
20260831020344 23 351 0.0 1.6 0.00 0.76 0.76 88 1014.5
20260831015839 23 8 1.6 3.2 0.00 0.76 0.76 88 1014.4
20260831015335 23 347 3.2 3.2 0.00 0.76 0.76 88 1014.4
20260831014835 23 92 1.6 3.2 0.00 0.76 0.76 88 1014.4
20260831014330 23 349 3.2 3.2 0.00 0.76 0.76 88 1014.2
20260831013826 23 40 3.2 4.8 0.00 0.76 0.76 88 1014.2
20260831013325 23 5 1.6 1.6 0.00 0.76 0.76 88 1014.2
20260831012820 23 75 3.2 4.8 0.00 0.76 0.76 88 1014.0
20260831012316 23 350 3.2 4.8 0.00 0.76 0.76 88 1014.0
20260831011815 22 91 6.4 6.4 0.00 0.76 0.76 89 1013.7
20260831011310 22 217 3.2 4.8 0.00 0.76 0.76 89 1013.9
20260831010801 22 84 4.8 4.8 0.00 0.76 0.76 89 1013.9
20260831010300 22 83 4.8 4.8 0.00 0.76 0.76 89 1014.0
20260831005756 22 43 6.4 9.7 0.00 0.76 0.76 89 1014.2
20260831005252 23 339 3.2 3.2 0.00 0.76 0.76 89 1014.2
20260831004746 23 96 8.0 9.7 0.00 0.76 0.76 89 1014.1
20260831004242 23 95 4.8 4.8 0.00 0.76 0.76 89 1014.1
20260831003738 23 153 6.4 9.7 0.00 0.76 0.76 88 1014.2
20260831003234 23 164 6.4 9.7 0.00 0.76 0.76 88 1014.3
20260831002733 23 228 4.8 4.8 0.00 0.76 0.76 88 1014.3
20260831002232 23 82 3.2 4.8 0.00 0.76 0.76 88 1014.2
20260831001729 23 61 4.8 6.4 0.00 0.76 0.76 88 1014.4
20260831001223 23 121 4.8 6.4 0.00 0.76 0.76 87 1014.4
20260831000720 23 101 4.8 4.8 0.00 0.76 0.76 86 1014.5
20260831000215 23 359 3.2 4.8 0.00 0.76 0.76 86 1014.8
20260830235714 23 134 4.8 6.4 0.00 0.76 0.76 85 1014.5
20260830235209 23 194 3.2 4.8 0.00 0.76 0.76 84 1014.7
20260830234704 23 14 3.2 3.2 0.00 0.76 0.76 85 1014.4
20260830234200 23 54 4.8 6.4 0.00 0.76 0.76 85 1014.5
20260830233655 23 87 8.0 11.3 0.00 0.76 0.76 85 1014.5
20260830233151 23 157 6.4 6.4 0.00 0.76 0.76 87 1014.7
20260830232646 23 61 3.2 4.8 0.00 0.76 0.76 87 1014.7
20260830232142 23 44 3.2 3.2 0.00 0.76 0.76 87 1015.0
20260830231638 23 336 4.8 6.4 0.00 0.76 0.76 86 1014.8
20260830231138 23 9 3.2 4.8 0.00 0.76 0.76 89 1014.8
20260830230633 23 237 4.8 6.4 0.00 0.76 0.76 89 1014.6
20260830230132 23 148 4.8 6.4 0.00 0.76 0.76 90 1014.6
20260830225628 23 149 6.4 9.7 0.00 0.76 0.76 89 1014.7
20260830225128 23 271 4.8 4.8 0.00 0.76 0.76 90 1014.7
20260830224627 23 347 0.0 0.0 0.00 0.76 0.76 90 1014.7
20260830224123 23 355 1.6 3.2 0.00 0.76 0.76 90 1014.5
20260830223620 23 355 1.6 1.6 0.00 0.76 0.76 90 1014.6
20260830223120 22 18 1.6 1.6 0.00 0.76 0.76 90 1014.4
20260830222620 22 8 0.0 0.0 0.00 0.76 0.76 90 1014.5
20260830222116 22 350 1.6 1.6 0.00 0.76 0.76 91 1014.7
20260830221612 22 1 1.6 3.2 0.00 0.76 0.76 91 1014.4
20260830221108 22 325 3.2 3.2 0.00 0.76 0.76 89 1014.7
20260830220603 22 350 1.6 1.6 0.00 0.76 0.76 89 1014.5
20260830220101 22 350 0.0 0.0 0.00 0.76 0.76 90 1014.4
20260830215600 22 351 0.0 0.0 0.00 0.76 0.76 91 1014.4
20260830215055 22 346 0.0 0.0 0.13 0.76 0.76 91 1014.4
20260830214550 22 153 6.4 6.4 0.13 0.76 0.76 90 1014.5
20260830214045 22 342 1.6 3.2 0.00 0.74 0.74 92 1014.6
20260830213540 22 315 3.2 3.2 0.00 0.74 0.74 92 1014.2
20260830213035 22 89 6.4 6.4 0.18 0.74 0.74 93 1014.3
20260830212530 22 340 0.0 0.0 0.48 0.74 0.74 95 1015.1
20260830212025 22 302 1.6 3.2 0.43 0.71 0.71 94 1014.5
20260830211520 22 309 4.8 4.8 0.30 0.66 0.66 93 1014.5
20260830211020 22 312 0.0 1.6 0.18 0.64 0.64 93 1013.9
20260830210515 22 69 3.2 3.2 0.36 0.64 0.64 92 1013.5
20260830210014 22 222 8.0 9.7 0.18 0.61 0.61 92 1013.4
20260830205512 22 120 4.8 4.8 0.13 0.58 0.58 93 1013.3
20260830205008 22 143 6.4 6.4 0.13 0.58 0.58 93 1013.5
20260830204506 22 293 4.8 6.4 0.18 0.56 0.56 92 1013.9
20260830204001 22 101 3.2 4.8 0.30 0.56 0.56 92 1013.9
20260830203457 22 190 14.5 22.5 0.30 0.53 0.53 92 1014.2
20260830202956 22 183 8.0 11.3 0.30 0.51 0.51 92 1014.3
20260830202451 22 202 9.7 11.3 0.30 0.48 0.48 91 1014.6
20260830201948 22 262 9.7 12.9 0.48 0.46 0.46 92 1014.4
20260830201446 22 217 12.9 16.1 0.43 0.43 0.43 93 1014.6
20260830200943 22 195 9.7 12.9 0.48 0.41 0.41 93 1015.0
20260830200442 22 212 11.3 12.9 0.48 0.36 0.36 93 1014.9
20260830195937 22 248 6.4 6.4 0.30 0.33 0.33 93 1015.6
20260830195432 22 307 3.2 3.2 0.18 0.28 0.28 92 1015.5
20260830194930 22 288 4.8 4.8 0.18 0.28 0.28 91 1015.7
20260830194430 22 313 1.6 1.6 0.00 0.25 0.25 91 1015.3
20260830193930 22 339 3.2 4.8 0.00 0.25 0.25 91 1015.4
20260830193428 22 310 3.2 3.2 0.00 0.25 0.25 91 1015.5
20260830192924 22 299 4.8 4.8 0.00 0.25 0.25 90 1015.4
20260830192420 22 291 3.2 4.8 0.00 0.25 0.25 90 1015.4
20260830191914 22 312 1.6 3.2 0.00 0.25 0.25 90 1015.3
20260830191414 22 287 3.2 3.2 0.00 0.25 0.25 91 1015.4
20260830190910 22 344 4.8 6.4 0.00 0.25 0.25 90 1015.1
20260830190405 22 215 6.4 6.4 0.00 0.25 0.25 90 1015.4
20260830185904 22 274 4.8 4.8 0.00 0.25 0.25 91 1015.5
20260830185359 22 280 8.0 11.3 0.00 0.25 0.25 91 1015.3
20260830184854 22 219 6.4 6.4 0.13 0.25 0.25 91 1015.4
20260830184353 21 343 1.6 3.2 0.13 0.25 0.25 91 1015.3
20260830183848 22 45 4.8 6.4 0.00 0.23 0.23 92 1015.3
20260830183348 22 335 3.2 3.2 0.18 0.23 0.23 91 1015.7
20260830182844 21 260 3.2 4.8 0.48 0.23 0.23 91 1015.7
20260830182339 21 273 3.2 4.8 0.43 0.20 0.20 91 1015.9
20260830181835 22 258 6.4 9.7 0.13 0.15 0.15 90 1016.0
20260830181331 22 275 4.8 6.4 0.18 0.13 0.13 90 1015.9
20260830180825 22 123 3.2 3.2 0.30 0.13 0.13 90 1015.9
20260830180324 22 241 9.7 12.9 0.13 0.10 0.10 89 1015.6
20260830175824 22 224 8.0 11.3 0.18 0.08 0.08 88 1015.6
20260830175319 22 247 6.4 9.7 0.18 0.08 0.08 88 1015.6
20260830174814 22 2 6.4 9.7 0.00 0.05 0.05 87 1015.4
20260830174310 22 271 8.0 9.7 0.13 0.05 0.05 86 1015.3
20260830173809 22 272 6.4 6.4 0.30 0.05 0.05 85 1015.0
20260830173305 23 258 6.4 9.7 0.18 0.03 0.03 83 1014.9
20260830172801 23 188 6.4 6.4 0.00 0.00 0.00 80 1015.3
20260830172257 24 309 6.4 6.4 0.00 0.00 0.00 77 1015.3
20260830171753 25 241 9.7 11.3 0.00 0.00 0.00 74 1015.3
20260830171248 25 255 12.9 14.5 0.00 0.00 0.00 72 1015.4
20260830170742 25 274 8.0 11.3 0.00 0.00 0.00 73 1015.3
20260830170242 25 240 8.0 9.7 0.00 0.00 0.00 73 1015.2
20260830165740 25 210 6.4 6.4 0.00 0.00 0.00 73 1015.0
20260830165236 25 257 6.4 6.4 0.00 0.00 0.00 73 1015.1
20260830164733 25 260 4.8 9.7 0.00 0.00 0.00 73 1015.0
20260830164228 25 229 6.4 9.7 0.00 0.00 0.00 72 1015.0
20260830163725 25 280 9.7 12.9 0.00 0.00 0.00 71 1014.9
20260830163220 25 188 6.4 6.4 0.00 0.00 0.00 71 1014.9
20260830162715 25 267 6.4 9.7 0.00 0.00 0.00 71 1014.8
20260830162211 25 254 8.0 11.3 0.00 0.00 0.00 70 1014.6
20260830161706 25 204 6.4 9.7 0.00 0.00 0.00 70 1014.6
20260830161200 25 225 6.4 6.4 0.00 0.00 0.00 69 1014.5
20260830160657 26 222 11.3 14.5 0.00 0.00 0.00 69 1014.2
20260830160156 26 281 4.8 6.4 0.00 0.00 0.00 69 1014.1
20260830155653 25 230 9.7 12.9 0.00 0.00 0.00 69 1014.1
20260830155149 25 278 3.2 4.8 0.00 0.00 0.00 69 1014.1
20260830154644 25 259 8.0 9.7 0.00 0.00 0.00 70 1013.9
20260830154140 25 110 9.7 12.9 0.00 0.00 0.00 69 1013.9
20260830153636 25 218 8.0 11.3 0.00 0.00 0.00 69 1013.9
20260830153136 26 293 6.4 11.3 0.00 0.00 0.00 68 1013.9
20260830152635 26 241 4.8 6.4 0.00 0.00 0.00 69 1014.0
20260830152134 25 222 8.0 9.7 0.00 0.00 0.00 69 1014.0
20260830151629 25 185 6.4 9.7 0.00 0.00 0.00 71 1014.1
20260830151124 25 206 4.8 6.4 0.00 0.00 0.00 73 1014.0
20260830150623 25 182 6.4 6.4 0.00 0.00 0.00 72 1014.1
20260830150118 25 199 8.0 9.7 0.00 0.00 0.00 72 1014.1
20260830145618 25 221 6.4 11.3 0.00 0.00 0.00 72 1013.9
20260830145113 25 220 6.4 6.4 0.00 0.00 0.00 73 1013.7
20260830144609 24 259 4.8 6.4 0.00 0.00 0.00 73 1013.6
20260830144104 24 247 3.2 4.8 0.00 0.00 0.00 75 1013.5
20260830143600 23 206 9.7 12.9 0.00 0.00 0.00 75 1013.5
20260830143058 23 219 3.2 6.4 0.00 0.00 0.00 77 1013.4
20260830142555 23 228 6.4 9.7 0.00 0.00 0.00 77 1013.4
20260830142054 23 179 9.7 11.3 0.00 0.00 0.00 77 1013.2
20260830141550 23 207 4.8 6.4 0.00 0.00 0.00 77 1013.2
20260830141050 23 210 4.8 6.4 0.00 0.00 0.00 76 1013.2
20260830140544 23 242 6.4 9.7 0.00 0.00 0.00 77 1013.3
20260830140040 23 164 1.6 3.2 0.00 0.00 0.00 78 1013.4
20260830135535 22 159 6.4 9.7 0.00 0.00 0.00 78 1013.4
20260830135030 22 199 9.7 11.3 0.00 0.00 0.00 78 1013.3
20260830134526 22 280 3.2 3.2 0.00 0.00 0.00 80 1013.4
20260830134021 22 241 4.8 9.7 0.00 0.00 0.00 81 1013.4
20260830133517 22 162 4.8 6.4 0.00 0.00 0.00 82 1013.4
20260830133012 22 56 1.6 3.2 0.00 0.00 0.00 83 1013.4
20260830132508 22 188 6.4 6.4 0.00 0.00 0.00 83 1013.4
20260830132008 22 169 4.8 6.4 0.00 0.00 0.00 82 1013.3
20260830131507 22 59 6.4 6.4 0.00 0.00 0.00 81 1013.5
20260830131001 22 88 6.4 6.4 0.00 0.00 0.00 80 1013.5
20260830130457 22 279 6.4 9.7 0.00 0.00 0.00 80 1013.6
20260830125956 21 55 6.4 6.4 0.00 0.00 0.00 80 1013.5
20260830125451 21 187 8.0 9.7 0.00 0.00 0.00 81 1013.7
20260830124950 21 209 6.4 6.4 0.00 0.00 0.00 81 1013.9
20260830124444 21 277 4.8 6.4 0.00 0.00 0.00 82 1013.9
20260830123941 21 192 4.8 6.4 0.00 0.00 0.00 82 1014.0
20260830123437 21 78 6.4 6.4 0.00 0.00 0.00 82 1013.7
20260830122935 21 101 6.4 6.4 0.00 0.00 0.00 82 1013.7
20260830122435 21 352 3.2 3.2 0.00 0.00 0.00 82 1014.0
20260830121930 21 313 1.6 1.6 0.00 0.00 0.00 82 1014.0
20260830121425 21 346 1.6 1.6 0.00 0.00 0.00 83 1013.7
20260830120920 21 288 3.2 4.8 0.00 0.00 0.00 83 1013.5
20260830120415 21 335 1.6 3.2 0.00 0.00 0.00 83 1013.5
20260830115912 21 286 4.8 6.4 0.00 0.00 0.00 83 1013.5
20260830115408 21 157 3.2 6.4 0.00 0.00 0.00 83 1013.4
20260830114902 21 43 4.8 4.8 0.00 0.00 0.00 83 1013.3
20260830114359 21 50 4.8 4.8 0.00 0.00 0.00 83 1013.3
20260830113859 21 194 3.2 4.8 0.00 0.00 0.00 84 1013.5
20260830113354 20 34 1.6 3.2 0.00 0.00 0.00 84 1013.4
20260830112850 20 148 3.2 4.8 0.00 0.00 0.00 85 1013.2
20260830112345 20 67 4.8 6.4 0.00 0.00 0.00 85 1013.2
20260830111841 20 143 4.8 4.8 0.00 0.00 0.00 85 1013.3
20260830111337 20 25 3.2 4.8 0.00 0.00 0.00 85 1013.4
20260830110837 20 40 3.2 3.2 0.00 0.00 0.00 85 1013.3
20260830110333 20 211 6.4 6.4 0.00 0.00 0.00 85 1013.5
20260830105832 20 34 3.2 3.2 0.00 0.00 0.00 85 1013.5
20260830105329 20 260 4.8 4.8 0.00 0.00 0.00 85 1013.5
20260830104825 20 320 3.2 3.2 0.00 0.00 0.00 85 1013.5
20260830104322 20 132 4.8 4.8 0.00 0.00 0.00 85 1013.6
20260830103820 20 307 4.8 6.4 0.00 0.00 0.00 85 1013.4
20260830103317 21 204 6.4 6.4 0.00 0.00 0.00 85 1013.4
20260830102814 21 210 4.8 4.8 0.00 0.00 0.00 85 1013.3
20260830102310 21 326 3.2 4.8 0.00 0.00 0.00 85 1013.4
20260830101806 21 199 4.8 6.4 0.00 0.00 0.00 84 1013.4
20260830101301 21 253 3.2 3.2 0.00 0.00 0.00 84 1013.6
20260830100800 21 202 6.4 6.4 0.00 0.00 0.00 84 1013.6
20260830100255 21 226 4.8 4.8 0.00 0.00 0.00 83 1013.6
20260830095753 21 138 3.2 3.2 0.00 0.00 0.00 83 1013.6
20260830095250 21 211 3.2 3.2 0.00 0.00 0.00 82 1013.7
20260830094746 21 6 1.6 3.2 0.00 0.00 0.00 82 1013.5
20260830094242 21 311 1.6 3.2 0.00 0.00 0.00 81 1013.7
20260830093737 21 353 1.6 1.6 0.00 0.00 0.00 81 1013.7
20260830093233 21 340 1.6 3.2 0.00 0.00 0.00 80 1013.5
20260830092732 22 221 4.8 6.4 0.00 0.00 0.00 80 1013.6
20260830092229 22 210 3.2 4.8 0.00 0.00 0.00 80 1013.6
20260830091725 22 281 4.8 6.4 0.00 0.00 0.00 79 1013.6
20260830091225 22 317 6.4 9.7 0.00 0.00 0.00 79 1013.6
20260830090724 22 241 6.4 9.7 0.00 0.00 0.00 79 1013.7
20260830090220 22 206 3.2 4.8 0.00 0.00 0.00 79 1013.9
20260830085719 22 208 8.0 9.7 0.00 0.00 0.00 78 1013.5
20260830085215 22 222 4.8 4.8 0.00 0.00 0.00 78 1013.6
20260830084710 22 205 8.0 9.7 0.00 0.00 0.00 78 1013.7
20260830084205 22 203 8.0 9.7 0.00 0.00 0.00 77 1013.7
20260830083700 22 197 6.4 9.7 0.00 0.00 0.00 77 1013.6
20260830083156 22 195 6.4 11.3 0.00 0.00 0.00 77 1013.5
20260830082655 22 200 4.8 6.4 0.00 0.00 0.00 77 1013.7
20260830082151 22 328 4.8 4.8 0.00 0.00 0.00 76 1013.5
20260830081647 22 239 6.4 9.7 0.00 0.00 0.00 76 1013.6
20260830081146 22 205 8.0 11.3 0.00 0.00 0.00 76 1013.5
20260830080641 22 237 9.7 11.3 0.00 0.00 0.00 76 1013.6
20260830080136 22 228 6.4 6.4 0.00 0.00 0.00 76 1013.5
20260830075636 22 248 6.4 9.7 0.00 0.00 0.00 76 1013.4
20260830075131 22 230 6.4 9.7 0.00 0.00 0.00 76 1013.5
20260830074627 22 189 9.7 14.5 0.00 0.00 0.00 76 1013.5
20260830074122 22 220 9.7 12.9 0.00 0.00 0.00 77 1013.5
20260830073619 22 209 6.4 11.3 0.00 0.00 0.00 77 1013.5
20260830073114 22 206 6.4 9.7 0.00 0.00 0.00 78 1013.6
20260830072609 22 227 9.7 11.3 0.00 0.00 0.00 78 1013.7
20260830072109 22 241 4.8 6.4 0.00 0.00 0.00 79 1013.9
20260830071605 22 201 4.8 4.8 0.00 0.00 0.00 79 1013.7
20260830071102 22 208 8.0 9.7 0.00 0.00 0.00 78 1013.9
20260830070557 22 241 9.7 11.3 0.00 0.00 0.00 79 1013.7
20260830070058 22 267 6.4 9.7 0.00 0.00 0.00 79 1014.1
20260830065556 22 240 4.8 6.4 0.00 0.00 0.00 80 1014.0
20260830065055 22 252 4.8 4.8 0.00 0.00 0.00 81 1014.2
20260830064550 22 234 4.8 6.4 0.00 0.00 0.00 81 1014.0